Theta_e
318 320 320 320 323 326 331 331 331 331 331 333 333 334 334 334 334 335 335 335 335 334 333 333 333 332 331 331 331 332 332 333 333 332 332 331 330 329 328 327 327 327 328 328 328 328 328 327 327 326 325 324 325 323 321 321 319 317 315 313 315 318 322 331 338 341 340 340 340 340 339 337 337 337 336 334 335 337 338 340 340 333 330 336 336
315 316 319 321 322 324 329 329 329 329 330 331 331 333 333 333 334 334 333 334 334 334 334 334 334 332 333 333 333 333 333 334 334 334 334 334 333 332 331 330 329 329 328 327 327 327 328 328 327 327 326 325 326 325 323 322 321 319 318 315 313 315 320 325 332 338 340 340 340 340 340 339 338 338 336 333 334 338 339 340 341 336 332 335 336
316 317 319 321 322 323 326 327 327 326 328 328 329 330 331 332 332 332 331 333 333 333 334 334 334 333 334 333 333 334 334 335 335 335 335 335 335 334 334 334 333 333 332 330 329 329 329 328 328 326 326 325 324 325 325 325 323 321 320 318 316 313 316 321 326 334 339 340 340 340 340 340 338 338 337 332 333 339 340 341 341 338 333 335 337
317 317 317 318 320 321 321 323 326 326 326 326 327 328 329 329 329 330 330 331 332 332 333 334 334 334 334 334 334 335 334 334 334 334 335 335 335 335 335 335 334 334 334 333 332 332 330 329 328 328 326 325 325 324 325 326 325 322 320 319 318 316 313 316 322 328 336 339 340 339 340 340 339 338 338 332 333 338 339 341 341 339 334 335 337
316 316 315 315 315 316 316 317 320 325 327 326 326 326 326 327 327 329 330 330 331 331 332 333 333 333 334 334 335 335 335 334 334 334 335 335 335 335 335 335 335 334 334 333 333 333 332 331 330 329 328 327 326 325 325 326 326 324 322 319 319 318 315 314 317 324 332 337 339 339 339 340 339 338 338 332 332 337 339 341 342 341 337 336 337
314 314 314 314 314 314 314 313 313 317 323 326 327 326 325 324 325 327 328 329 330 330 331 332 332 333 333 333 333 334 334 334 334 334 334 335 335 336 335 335 335 335 334 334 334 334 333 332 331 330 330 328 327 326 325 325 326 327 325 321 318 318 318 314 313 319 327 334 338 339 338 338 340 339 339 333 330 336 339 340 341 342 339 338 338
312 312 312 312 312 313 313 314 313 312 314 318 322 324 325 324 325 325 327 328 329 329 329 330 331 332 332 333 332 333 333 332 333 333 334 334 335 335 335 335 334 334 334 335 335 334 334 333 333 332 331 330 328 326 325 324 325 328 329 325 320 316 316 316 313 314 322 331 335 337 338 337 339 340 340 335 329 334 338 339 340 342 341 339 339
310 310 310 310 311 311 311 312 313 313 312 313 314 316 319 320 322 324 325 326 328 329 329 329 330 330 331 332 331 331 332 332 332 332 333 333 334 333 334 334 333 334 334 335 335 335 335 333 333 333 332 331 330 328 327 325 325 327 330 330 326 319 314 314 313 312 315 324 332 335 336 337 338 340 341 336 329 333 337 337 340 342 341 341 339
309 308 308 309 309 309 310 310 310 311 312 312 312 312 313 314 315 317 319 321 324 325 327 328 328 329 329 330 329 329 330 331 331 332 333 333 333 333 333 333 333 334 333 334 335 335 335 334 334 333 333 332 331 330 328 326 325 326 328 331 331 328 322 317 313 312 311 316 325 333 336 336 337 339 341 337 329 332 337 336 338 341 341 341 338
307 307 307 307 308 308 308 308 308 309 309 310 310 311 311 312 312 312 313 314 316 318 320 322 324 325 326 326 327 327 328 328 329 330 331 331 332 332 333 333 333 333 333 333 333 334 334 334 334 334 333 333 331 330 329 328 326 326 327 330 332 333 331 327 322 316 312 310 316 326 333 336 337 338 340 338 330 331 337 336 336 339 342 341 338
306 306 306 307 307 307 307 307 307 308 308 308 308 309 309 310 310 311 311 312 312 313 313 315 316 319 320 322 323 324 325 326 326 328 329 330 331 332 333 333 333 333 332 332 332 332 332 332 332 332 332 332 331 329 329 329 328 328 327 329 330 331 332 333 331 327 321 313 309 314 324 333 336 336 339 339 331 331 337 336 334 337 341 341 338
306 306 306 306 306 306 307 307 307 307 307 307 308 307 308 308 308 309 309 310 310 311 311 312 312 314 315 317 318 320 322 322 323 324 325 326 327 329 330 330 331 331 332 332 331 331 330 330 330 330 330 331 331 330 329 328 328 329 329 329 329 329 330 331 332 333 331 325 317 311 313 323 333 336 338 340 334 330 335 336 333 335 340 340 340
305 305 306 306 306 306 306 306 306 306 306 306 306 306 307 307 307 307 308 308 308 309 309 310 311 311 312 313 314 315 317 318 319 320 321 322 323 324 325 327 328 329 330 331 331 331 330 330 330 330 330 330 330 330 330 329 328 328 329 328 328 327 327 328 329 330 332 332 329 322 313 313 323 334 338 340 337 332 332 335 335 335 338 340 340
305 305 305 305 305 305 305 305 305 305 305 305 305 305 305 305 305 305 306 306 306 307 307 308 308 309 309 310 311 312 314 315 316 317 319 320 321 322 322 324 325 326 327 329 330 331 331 330 330 329 329 329 330 331 331 330 328 328 328 329 329 327 325 326 328 329 329 331 333 332 325 315 314 324 335 339 338 336 333 334 336 335 337 339 340
305 305 305 305 305 304 304 304 303 303 303 303 303 303 303 303 303 303 303 303 303 304 305 306 306 307 307 307 308 309 310 311 313 314 315 316 318 320 321 322 322 323 324 326 328 329 330 330 330 330 330 329 329 330 330 329 328 327 328 328 328 327 325 324 327 329 329 328 329 332 333 328 318 316 327 337 339 337 335 334 334 335 336 336 338
304 304 304 303 303 303 302 302 302 302 302 302 302 302 302 302 302 302 302 302 302 302 302 302 303 304 305 306 306 306 307 307 308 309 311 312 313 315 317 318 319 320 321 322 324 325 327 329 330 330 330 330 329 329 329 329 328 327 327 327 327 327 326 324 324 326 328 328 328 328 330 332 329 320 319 331 338 337 336 335 333 335 336 336 336
304 303 303 302 302 301 301 301 301 301 301 301 301 301 301 301 301 302 302 301 301 301 301 301 301 301 302 302 303 304 305 305 306 306 307 307 308 310 311 313 315 316 317 318 319 320 322 325 328 329 330 329 329 329 329 328 326 326 326 325 325 326 328 327 325 324 326 327 327 326 326 328 331 330 322 324 333 336 336 336 334 335 336 336 336
303 303 303 302 301 301 301 301 301 301 301 301 301 301 301 301 301 301 301 301 301 301 301 301 301 301 301 300 300 301 301 302 303 304 304 305 305 305 306 308 309 311 312 314 315 316 317 319 321 324 326 327 328 328 329 328 327 326 326 325 323 323 324 327 327 326 325 326 326 326 326 325 327 330 329 324 326 332 336 337 336 335 335 336 336
303 302 302 302 301 301 301 301 301 301 301 301 302 301 302 301 301 301 301 301 301 301 301 300 300 300 300 300 300 300 300 300 300 301 301 302 303 303 303 304 305 306 307 308 310 312 313 315 316 317 319 321 323 325 327 328 327 326 326 324 323 322 320 321 324 326 326 325 325 327 327 325 325 326 329 328 326 328 332 336 337 336 334 335 336
302 302 301 301 301 301 301 301 301 301 302 302 302 302 302 301 301 301 301 301 301 300 300 300 300 300 300 300 300 300 300 299 299 299 299 300 300 300 301 301 302 302 303 304 305 306 308 310 312 313 314 315 316 318 320 323 325 325 326 326 325 323 321 318 319 322 326 326 324 325 326 325 325 325 326 329 328 327 328 332 336 337 336 334 334
301 301 301 301 300 300 301 301 301 301 302 302 302 302 301 301 301 301 301 301 300 300 300 300 300 300 300 300 300 300 299 299 299 299 299 299 299 299 299 299 300 300 300 301 302 303 304 305 306 308 310 312 313 314 315 317 319 321 323 325 325 323 322 320 318 318 322 327 327 325 324 324 325 325 326 328 328 328 327 329 332 336 338 335 333
301 301 301 301 300 300 300 301 301 301 302 301 301 301 301 301 301 301 300 300 300 300 300 300 300 300 300 300 300 300 300 299 299 299 299 299 299 299 299 299 299 299 299 299 299 300 301 301 302 303 305 306 308 310 312 314 315 316 318 319 321 320 320 319 319 318 318 324 328 327 324 323 325 326 327 328 328 328 328 327 330 334 337 337 334
301 301 301 301 300 300 300 301 301 301 301 301 301 301 301 300 300 300 300 300 300 300 300 300 300 300 300 300 300 300 300 300 300 299 299 299 299 298 298 298 298 298 298 298 299 299 299 299 300 300 301 302 303 305 307 309 312 314 316 316 317 317 317 317 317 318 317 318 325 328 325 323 323 325 326 327 328 328 328 328 328 331 335 337 336
301 301 301 301 300 300 300 300 301 301 301 301 300 300 300 300 300 300 300 299 299 299 299 299 299 299 299 299 299 300 300 299 299 299 299 299 299 299 298 298 298 298 298 298 298 298 298 298 299 299 299 300 300 301 302 303 306 309 312 315 316 316 316 316 316 318 318 316 320 326 326 324 323 323 326 327 328 328 328 328 328 329 331 335 336
302 302 301 301 300 300 300 300 300 301 300 300 300 300 300 300 299 299 299 299 299 299 299 299 299 299 299 299 299 299 299 299 299 299 299 299 299 299 299 299 299 298 299 298 298 298 298 298 298 298 298 298 298 299 299 300 301 303 306 311 315 317 317 316 316 318 319 317 317 323 326 325 324 323 324 326 327 328 328 328 328 329 330 332 334
301 302 301 300 300 300 300 300 300 300 300 300 300 300 300 300 299 299 299 298 298 298 298 298 298 298 298 298 298 298 299 299 299 298 298 298 298 298 298 298 298 298 299 299 299 298 298 298 298 298 298 298 298 298 298 298 299 300 301 304 309 314 317 317 317 317 319 320 318 320 324 325 325 324 323 323 325 327 327 328 328 329 330 330 331
301 301 301 300 300 300 300 300 300 300 300 300 300 300 300 300 299 299 299 298 298 298 298 298 298 298 298 298 298 298 298 298 298 298 298 298 298 298 297 298 298 298 298 298 298 298 298 298 298 298 298 298 298 298 298 298 298 298 299 300 302 306 312 316 318 318 318 320 320 319 320 323 326 326 324 322 323 325 327 327 328 328 328 329 330
301 301 300 300 300 300 300 300 300 300 300 300 299 299 299 299 299 299 298 298 298 297 297 297 297 297 297 297 297 297 298 298 298 298 298 298 297 297 297 297 297 297 297 297 297 298 298 298 298 298 298 298 298 298 298 298 298 298 298 298 299 300 304 309 314 318 319 319 320 320 319 320 323 326 327 324 321 322 325 327 327 327 328 329 330
301 301 300 300 299 299 300 299 299 299 299 299 299 299 299 299 299 298 298 298 297 297 297 297 297 297 297 297 297 297 297 297 297 297 297 297 297 297 297 297 296 296 296 296 296 297 297 297 297 297 298 298 298 298 298 298 298 298 298 298 298 298 299 301 305 311 316 319 320 320 320 319 320 322 325 325 323 321 322 325 327 327 327 329 329
300 300 300 299 299 299 299 299 299 299 299 299 298 298 298 298 298 297 297 297 297 297 297 297 297 297 297 296 296 297 297 297 296 296 297 297 297 297 297 297 296 296 296 296 296 296 296 296 296 297 297 297 297 297 297 298 298 298 298 298 298 298 298 298 299 302 307 313 317 320 320 320 320 320 321 323 324 323 321 322 325 326 327 327 328
300 299 299 299 300 299 299 299 299 299 298 298 298 298 298 297 297 297 297 297 296 296 296 296 296 296 296 296 296 296 296 296 296 296 296 296 296 296 296 296 296 296 296 296 296 296 296 296 295 296 296 296 296 296 297 297 297 298 298 298 298 298 298 298 298 298 300 303 308 314 318 320 321 321 321 321 322 322 321 321 322 325 326 326 327
299 299 299 299 299 299 299 299 298 298 298 297 297 297 297 297 297 297 296 296 296 296 296 296 296 295 295 295 295 295 295 295 295 295 295 295 295 296 296 296 296 295 295 295 295 295 295 295 295 295 295 295 295 296 296 296 296 297 297 297 298 298 298 298 298 298 298 298 300 304 310 316 319 321 322 321 322 322 322 321 321 321 323 325 326
299 299 299 299 299 299 298 298 298 297 297 297 297 297 297 297 297 296 296 296 296 295 295 295 295 295 295 295 295 294 295 295 295 295 295 295 295 295 295 295 295 295 295 295 295 295 295 295 295 295 295 295 295 295 295 295 295 296 296 296 297 297 297 298 298 298 298 298 298 299 301 306 312 318 321 322 322 323 323 323 322 321 321 323 324
299 299 299 299 298 298 298 298 297 297 297 297 297 297 296 296 296 296 295 295 295 295 295 295 295 294 294 294 294 294 294 294 294 294 294 294 294 294 294 294 294 294 294 294 294 294 294 295 295 295 295 295 294 295 295 295 295 295 295 295 296 296 297 297 298 298 298 298 298 298 299 300 303 309 315 320 321 322 324 324 324 322 321 320 321
298 298 298 298 298 298 297 297 297 296 297 296 296 296 296 296 295 295 295 295 295 295 295 294 294 294 294 293 293 293 293 293 293 294 294 293 293 293 293 293 293 293 293 293 293 294 294 294 294 294 294 294 294 294 294 294 294 295 295 295 295 295 296 296 297 297 298 298 298 298 298 298 299 301 306 313 318 321 322 323 324 324 323 319 318
298 298 298 298 298 297 297 297 297 296 296 296 296 296 295 295 295 295 295 295 294 294 294 294 294 293 293 293 293 293 293 293 293 293 293 293 293 293 293 293 293 293 293 293 293 293 293 293 293 293 293 294 294 294 294 294 294 294 294 294 295 295 295 295 296 296 297 298 298 298 298 298 298 299 300 305 311 317 320 322 323 324 324 323 319
297 297 297 298 298 297 297 297 296 296 296 296 295 295 295 295 294 294 294 294 294 293 293 293 293 293 293 293 292 292 292 293 293 293 293 293 293 293 293 292 292 292 292 292 292 292 292 292 293 293 293 293 293 293 293 294 294 294 294 294 294 295 295 295 295 295 296 296 297 298 298 298 298 298 298 300 303 309 316 319 321 323 324 325 323
297 296 297 297 297 296 296 296 295 295 295 295 295 294 294 294 294 294 294 294 293 293 293 293 293 293 292 292 292 292 292 293 293 293 293 293 293 293 292 292 291 291 291 291 291 292 292 292 292 292 292 292 293 293 293 293 293 294 294 294 294 294 295 295 295 295 295 296 296 297 297 298 299 298 298 298 299 302 307 314 318 321 322 325 326
296 296 297 296 296 296 295 295 295 295 295 295 294 294 294 294 293 293 293 293 293 293 292 293 292 292 292 292 292 292 292 292 292 292 292 293 293 292 292 291 291 291 291 291 291 291 291 291 292 292 292 292 292 292 293 293 293 293 294 294 294 294 295 295 295 295 295 295 296 296 296 297 298 299 298 298 298 299 300 305 311 318 321 323 325
296 296 296 296 295 295 295 295 295 295 295 294 294 294 293 293 293 293 293 293 292 292 292 292 292 292 292 292 292 292 292 292 292 292 292 292 292 292 292 291 291 290 290 290 290 290 291 291 291 291 291 292 292 292 292 292 293 293 293 294 294 294 295 295 295 295 295 295 296 296 296 296 297 298 299 298 298 298 298 299 302 309 318 322 323
295 296 296 295 295 295 295 295 294 294 294 294 293 293 293 293 293 293 293 293 292 292 292 292 292 292 292 292 292 292 292 292 291 292 292 292 292 291 291 291 290 290 290 290 290 290 290 290 290 291 291 291 291 291 292 292 292 293 293 294 294 294 294 295 295 295 295 295 295 295 295 296 296 297 298 298 298 298 298 298 299 301 309 318 322
295 295 295 295 295 294 294 294 294 294 293 293 293 293 293 293 293 293 293 293 293 293 292 292 292 292 292 292 292 291 291 291 291 291 291 291 291 291 291 290 290 290 290 290 290 290 290 290 290 290 290 290 291 291 291 290 291 291 291 292 293 293 294 294 294 294 294 294 294 295 295 295 296 296 297 298 298 298 297 297 298 297 301 311 319
295 295 295 295 294 294 294 294 294 293 293 293 293 293 293 293 293 293 293 293 293 293 292 292 292 292 292 291 291 291 291 291 291 291 291 291 291 291 290 290 290 290 289 289 289 289 289 289 290 290 290 290 290 290 290 290 290 290 289 290 291 292 293 293 293 294 293 294 294 294 294 294 295 295 296 297 297 298 299 300 300 297 296 304 315
295 295 295 295 294 294 294 294 293 293 293 293 292 292 293 293 293 293 293 293 293 292 292 292 292 292 291 291 291 291 291 291 291 291 291 291 291 291 290 290 290 289 289 289 289 289 289 289 289 289 290 290 290 290 290 289 290 289 288 288 289 290 292 293 292 293 293 293 293 293 293 294 294 295 295 296 297 299 301 303 305 304 299 299 308
295 295 295 295 294 294 294 293 293 293 292 292 292 293 293 293 292 292 292 292 292 292 292 292 291 291 291 291 291 291 291 291 291 291 291 291 291 290 290 290 290 289 289 289 289 289 289 289 289 289 289 289 289 289 289 289 289 289 288 288 288 289 291 291 290 292 292 292 292 292 292 293 294 294 295 295 296 298 300 302 305 307 306 302 305
295 295 295 295 295 294 293 293 293 292 292 292 292 293 293 292 292 292 292 292 292 292 291 291 291 291 291 291 290 290 290 291 291 291 291 290 290 290 289 289 289 289 289 289 289 288 288 289 289 289 288 288 288 289 289 289 289 289 289 289 288 288 289 289 289 291 292 291 292 292 292 293 293 294 294 295 295 296 298 299 302 305 307 307 306
295 295 294 294 294 293 293 293 292 292 292 292 292 292 292 292 292 292 292 291 292 291 291 291 290 290 291 290 290 290 290 291 290 290 290 290 289 289 289 289 288 288 288 288 288 288 288 288 288 288 288 288 288 288 289 289 288 288 288 288 289 288 287 287 288 289 291 291 291 292 293 293 293 294 294 295 295 295 296 296 298 301 306 310 311
295 294 294 294 294 293 293 293 292 292 292 292 292 292 292 292 292 292 291 291 291 291 291 290 290 290 290 290 290 290 290 290 290 290 290 289 289 289 289 288 288 288 288 288 288 288 288 288 288 287 287 288 288 288 289 289 289 288 287 287 287 286 286 286 287 288 290 291 291 291 292 292 293 294 293 294 294 295 295 295 295 298 303 309 313
295 294 294 294 293 293 292 292 292 292 292 292 292 292 292 292 291 291 291 290 290 290 290 290 290 290 290 290 290 290 290 290 290 290 290 289 289 289 288 288 288 288 288 288 287 287 287 287 287 287 287 288 288 288 289 289 289 289 287 286 285 284 285 286 287 288 290 290 290 291 291 292 293 294 293 293 294 295 296 296 295 296 299 306 311
295 294 294 294 293 292 292 292 292 292 292 292 292 292 292 291 291 291 290 290 290 290 290 290 290 290 290 290 290 290 290 290 290 290 289 289 288 288 288 288 288 287 287 287 287 287 287 287 287 287 287 288 288 288 289 289 289 289 287 284 283 283 284 286 287 288 289 290 290 290 291 292 293 294 294 294 294 295 295 295 295 295 296 300 307
295 294 294 293 293 292 292 292 292 291 292 292 292 291 291 291 290 290 290 290 290 290 290 290 290 289 290 290 290 290 290 290 289 289 289 288 288 288 288 287 287 287 287 287 287 287 287 287 287 287 287 288 288 288 288 288 288 288 287 284 283 283 282 283 285 287 288 289 290 290 291 292 293 294 294 294 294 295 295 295 295 295 295 296 301
Wind_Speed
4 3 3 2 1 1 3 3 2 1 1 1 1 0 1 1 1 1 1 2 3 3 3 3 3 3 3 3 3 4 4 4 4 4 5 5 4 4 5 5 6 6 7 8 8 8 8 9 10 11 12 13 13 13 13 13 11 10 11 10 8 9 11 13 13 12 11 10 10 12 11 10 10 10 10 10 11 12 13 13 13 13 12 10 10
5 5 5 4 3 2 2 1 1 1 2 2 3 2 2 1 1 1 1 1 2 3 4 4 5 5 5 5 6 5 5 6 6 6 7 6 5 6 6 6 6 6 7 8 9 9 9 9 9 9 10 12 13 13 13 13 13 11 10 11 11 11 12 13 14 14 12 11 11 12 13 12 12 11 11 10 10 11 12 13 14 14 14 12 11
8 7 8 7 5 4 4 5 5 4 4 5 6 5 5 4 3 3 2 2 2 3 4 4 4 5 6 7 8 7 8 8 8 8 9 8 7 8 8 8 8 7 7 8 9 9 9 10 10 10 10 11 12 13 13 13 13 12 10 10 12 12 12 14 15 15 14 13 12 12 13 13 13 13 12 11 10 11 11 12 13 15 15 14 13
8 9 9 9 8 7 7 7 7 7 7 8 8 8 7 7 6 6 6 5 4 4 4 4 4 5 6 7 8 9 9 10 9 9 10 10 9 10 9 9 8 8 8 8 9 9 10 10 10 11 11 12 12 13 13 13 12 13 12 10 11 13 13 14 15 15 15 14 13 14 14 14 14 14 13 12 11 11 11 12 13 15 16 16 14
8 9 9 9 9 8 7 8 9 9 9 9 10 10 9 9 8 8 8 7 7 6 6 6 6 5 6 6 6 7 8 10 10 10 10 11 11 11 10 10 9 9 9 9 9 9 10 11 11 11 11 12 14 14 14 14 13 13 12 12 12 12 13 14 15 16 16 15 15 16 16 15 15 15 14 13 12 12 12 12 13 15 17 17 16
8 8 8 7 7 7 7 7 8 9 10 11 11 11 11 11 11 10 10 10 9 10 9 8 7 7 7 8 8 7 7 9 9 10 10 10 10 11 11 10 10 10 10 10 10 9 10 11 12 12 12 12 13 15 15 14 14 14 13 12 12 13 14 14 14 15 17 17 16 17 17 16 16 16 15 14 14 13 13 13 13 15 18 18 17
7 6 6 6 6 6 6 7 8 9 10 11 12 13 13 13 13 12 12 12 12 13 12 12 11 10 10 11 11 11 10 10 10 10 11 11 12 12 12 11 11 10 10 10 11 11 10 10 11 12 12 12 12 13 15 15 15 14 14 13 12 13 14 15 14 15 17 18 18 17 18 17 17 18 16 16 15 14 14 14 14 16 18 19 18
5 5 5 5 6 6 6 6 7 8 8 10 11 12 13 14 14 15 14 14 14 14 14 14 14 14 13 13 13 14 13 13 13 13 13 14 14 15 14 13 13 12 11 11 12 12 12 11 11 11 12 12 13 13 14 15 15 15 14 14 13 13 13 15 15 15 16 18 19 19 19 18 18 19 18 17 16 15 15 14 14 16 18 19 19
3 3 3 4 4 4 5 4 5 6 7 8 9 10 11 12 13 14 15 15 16 15 16 16 16 16 16 16 16 16 16 16 15 14 14 15 16 16 16 16 15 15 14 13 13 12 13 12 12 12 12 13 13 13 13 14 15 16 16 15 14 13 14 15 15 16 16 18 19 20 20 19 19 20 19 17 17 16 16 15 15 16 18 20 21
2 3 3 4 4 4 4 4 4 5 5 6 6 7 8 9 11 12 13 14 15 16 17 17 18 18 18 19 19 19 19 18 18 17 16 16 16 16 16 17 17 17 16 16 15 14 13 13 14 14 14 14 14 14 14 14 15 16 17 17 15 14 14 15 16 16 17 17 19 20 21 20 20 21 20 18 18 17 17 17 16 17 19 22 23
2 2 3 4 4 4 4 5 5 6 6 6 6 7 7 8 8 9 10 11 13 14 15 17 18 19 20 20 20 21 21 21 21 20 19 19 18 17 18 18 18 19 18 18 18 18 17 15 16 16 16 15 15 15 15 15 15 16 17 17 17 16 15 15 16 17 18 18 18 20 21 22 21 22 21 19 19 19 19 19 18 18 20 23 24
3 4 4 4 5 5 5 6 6 7 7 7 8 8 9 9 9 9 9 10 10 11 13 14 16 17 19 20 21 22 22 23 23 23 22 22 21 20 20 20 20 20 20 20 20 20 19 19 19 19 19 18 17 17 16 16 16 16 17 18 18 18 17 17 17 17 18 19 19 19 20 22 23 22 22 21 21 21 21 21 20 20 20 23 24
6 5 5 5 5 5 5 5 6 7 7 7 8 8 9 9 9 10 10 10 10 11 11 12 13 15 16 18 20 21 23 24 25 25 25 24 23 23 23 23 23 23 23 23 22 22 21 21 22 22 21 20 19 18 18 17 18 18 18 19 19 19 19 19 19 19 20 20 20 20 20 22 23 23 22 22 22 23 23 22 22 22 22 23 24
7 6 6 5 5 5 4 5 5 6 7 7 8 8 9 9 9 10 10 10 11 12 12 12 12 13 14 15 17 18 20 22 24 25 26 26 25 25 25 26 26 26 26 26 25 24 24 24 24 24 23 22 22 21 20 19 20 20 20 20 20 21 21 21 20 21 21 22 22 22 22 21 23 23 23 23 24 25 25 24 24 23 23 23 25
7 7 6 5 4 4 4 4 5 5 6 6 7 8 9 9 10 10 11 11 11 12 12 13 13 14 14 14 15 16 17 19 21 23 24 26 26 27 27 27 27 28 28 28 28 27 26 26 25 25 24 24 24 24 23 22 22 22 23 22 22 23 24 23 22 22 22 23 23 24 24 23 22 23 23 24 25 26 27 27 26 25 24 25 25
8 7 6 4 4 3 3 4 4 4 5 5 6 6 7 8 9 10 11 12 12 12 13 13 14 15 15 15 16 16 16 17 18 19 21 22 24 26 27 28 28 29 29 29 29 29 29 28 27 26 26 26 27 26 26 25 24 24 26 26 24 24 24 26 26 25 24 23 24 25 26 25 24 23 23 24 25 27 28 28 28 27 26 26 26
9 8 6 5 4 2 2 2 2 3 4 4 5 6 6 7 8 8 10 11 12 13 13 14 14 15 16 16 17 17 18 18 18 19 19 20 20 22 24 26 27 28 29 30 30 31 31 31 30 29 29 29 29 29 29 28 27 27 28 29 28 26 25 26 28 29 28 26 25 26 26 27 25 24 23 23 25 28 30 30 30 29 28 28 28
11 9 7 6 5 3 2 1 2 3 3 4 5 6 6 7 7 8 8 9 10 11 12 13 14 15 16 16 17 17 18 19 19 20 20 20 20 20 21 22 24 26 27 28 29 31 32 32 33 33 33 33 32 32 31 30 30 30 30 30 30 30 29 28 29 30 31 30 28 26 27 28 26 25 24 24 25 28 30 32 32 32 31 30 30
12 10 9 7 6 4 3 1 1 2 4 5 6 7 7 7 8 8 8 9 10 11 12 13 14 15 15 16 16 17 17 17 18 19 20 21 21 21 21 22 23 23 25 26 27 29 30 32 33 34 35 36 36 35 34 33 33 32 32 31 31 31 32 31 31 31 32 33 32 29 29 29 28 26 25 24 25 27 30 33 34 35 34 33 32
13 11 9 8 6 5 4 2 2 2 4 5 7 8 8 9 8 9 9 10 10 11 12 13 14 15 15 16 16 17 17 17 17 18 18 19 20 21 22 22 23 23 24 25 25 27 28 29 31 33 35 36 37 38 38 37 36 35 34 34 33 33 33 33 34 34 34 34 34 33 32 31 29 28 26 25 25 27 30 33 34 36 37 36 35
14 12 10 9 8 6 5 4 3 2 4 5 7 8 8 8 8 9 9 9 10 11 12 13 15 16 17 17 17 18 18 18 18 18 18 18 19 20 21 21 22 23 24 25 25 26 27 28 29 30 32 34 36 37 38 39 39 38 38 37 36 36 36 35 35 36 36 36 35 35 36 34 32 30 28 26 25 27 31 33 34 37 38 38 36
15 13 12 10 9 7 7 5 4 3 3 4 6 7 8 8 8 9 9 10 10 11 12 13 15 16 18 19 20 20 20 20 20 20 19 19 19 19 20 20 21 22 23 24 25 26 27 28 29 30 31 32 33 35 37 38 39 40 40 39 39 39 38 37 37 37 39 39 38 36 37 36 35 33 31 29 27 27 30 33 35 36 38 38 38
16 15 13 12 10 9 9 7 5 3 2 3 5 7 7 8 8 9 9 10 11 12 12 14 15 16 18 19 21 21 22 22 22 22 22 21 21 20 20 20 21 21 22 23 24 25 26 27 28 29 31 32 32 33 34 36 37 39 40 40 40 39 39 39 39 38 40 42 42 39 37 37 37 36 34 31 30 29 30 33 35 36 38 39 39
18 16 15 14 13 12 10 9 6 4 2 3 5 6 7 7 8 9 9 10 11 12 12 13 14 16 17 18 20 21 22 23 23 23 23 23 22 22 22 21 21 21 21 21 22 23 24 25 26 27 28 29 31 32 33 34 35 36 38 40 41 40 40 40 40 39 40 42 44 42 39 38 38 38 36 34 33 32 31 33 35 37 38 39 40
20 19 17 16 14 13 12 10 7 5 3 3 4 5 6 7 8 9 9 10 10 11 12 13 14 15 16 17 19 20 22 22 23 24 24 24 23 23 23 23 23 23 23 23 23 23 23 24 25 26 27 28 28 29 31 32 34 34 36 37 40 41 41 40 40 40 40 41 43 44 43 41 40 40 38 37 36 35 34 34 35 37 38 39 39
22 20 18 17 16 14 12 10 8 5 3 3 4 5 6 7 8 9 9 10 10 11 12 12 13 14 15 17 18 19 21 22 23 24 24 24 24 25 25 25 25 26 26 26 25 25 25 25 25 25 26 27 28 29 29 31 32 33 34 35 37 40 41 42 41 41 41 41 43 44 44 43 42 41 40 40 38 37 36 36 36 38 39 40 40
23 21 20 19 17 15 13 11 9 6 4 3 3 4 5 6 8 8 9 9 10 11 12 12 13 15 16 17 18 20 22 23 25 25 25 25 25 25 25 25 25 26 26 27 27 27 28 28 28 27 27 27 27 28 29 30 31 32 33 34 35 37 40 42 43 43 43 43 43 44 45 45 44 43 43 42 41 39 38 38 38 39 39 41 41
24 23 21 20 18 16 15 12 10 7 5 3 2 3 4 5 7 8 8 9 10 11 12 13 15 16 17 19 20 21 23 25 26 27 28 28 27 27 26 26 26 26 25 26 27 27 28 29 29 30 30 30 29 29 29 29 30 31 32 33 34 35 38 40 42 44 45 45 45 45 45 46 46 45 45 45 44 41 40 39 39 40 40 41 42
26 24 22 21 19 18 15 13 10 7 5 3 3 3 4 6 7 8 9 9 11 12 14 15 17 18 19 20 21 22 24 25 26 27 28 28 29 29 29 29 29 28 28 28 28 27 28 28 29 30 31 32 32 32 32 31 31 31 32 33 33 34 36 38 41 43 45 46 47 47 46 47 47 46 46 46 46 45 43 41 41 41 42 43 42
27 25 23 22 21 18 16 12 9 7 5 3 3 4 5 6 7 8 9 10 11 13 14 16 17 18 19 20 21 22 24 25 26 27 28 28 29 29 30 30 30 31 31 30 31 31 30 30 30 30 31 32 32 33 34 35 35 34 34 34 34 34 35 37 39 41 44 46 48 49 49 48 48 48 47 46 47 47 46 44 43 42 43 44 44
28 26 25 24 21 19 15 12 9 7 5 4 4 4 5 6 7 8 9 11 12 13 14 16 17 18 19 20 21 22 23 24 26 27 28 29 29 30 30 31 31 31 32 32 32 32 32 32 31 31 31 32 32 33 33 35 36 37 37 37 36 36 36 37 38 40 42 45 47 49 51 50 50 49 49 48 48 49 49 47 45 44 44 45 45
28 27 26 24 21 18 14 11 9 7 5 4 4 4 5 6 7 9 10 11 12 14 15 16 17 18 19 20 21 22 23 24 26 27 28 29 30 31 31 32 32 32 32 33 32 33 33 33 33 32 32 32 32 32 33 34 34 36 37 39 40 40 39 38 38 39 40 43 46 48 50 52 52 51 50 49 49 49 50 49 48 48 47 46 46
28 27 26 23 20 16 13 11 9 7 5 4 5 5 5 6 7 8 10 11 12 13 14 16 17 18 19 20 21 22 24 25 26 28 29 29 30 31 31 32 33 33 33 33 33 34 34 35 35 36 35 35 35 34 34 34 34 34 35 36 39 41 42 42 41 40 40 42 44 47 49 51 53 53 52 51 50 49 49 49 48 49 49 48 47
29 28 26 22 19 16 13 11 9 8 6 6 6 5 5 6 7 8 9 10 11 13 14 15 17 18 19 20 21 22 23 25 27 28 29 30 30 31 31 32 33 33 34 34 35 35 35 36 36 37 38 39 39 39 38 38 38 37 36 35 36 38 40 43 44 44 43 42 43 45 47 50 52 54 55 54 52 51 50 49 49 49 50 50 49
30 28 25 21 19 16 15 13 11 9 8 7 7 5 5 5 6 7 8 10 11 13 14 15 17 18 19 20 21 22 23 25 27 29 30 30 30 31 31 32 33 34 34 35 36 36 36 36 36 37 38 39 40 41 41 42 42 41 40 39 38 38 38 40 42 45 46 47 46 45 46 48 50 53 55 56 55 54 53 53 51 50 50 52 53
30 27 25 22 20 18 16 14 12 11 10 8 7 5 5 5 6 7 8 10 11 13 14 16 17 18 19 20 21 22 23 25 27 29 31 31 32 32 32 32 33 34 34 35 36 37 37 38 38 37 38 39 40 41 42 43 45 45 44 44 43 42 41 41 40 41 43 46 49 49 48 48 48 50 53 56 58 57 55 55 54 53 52 51 53
29 27 25 23 21 20 18 15 13 12 10 8 6 5 5 5 6 8 9 11 12 13 15 16 18 19 20 21 21 23 24 25 27 29 31 32 33 33 33 34 34 34 35 35 35 36 37 38 39 38 39 40 40 41 42 43 45 47 47 47 47 46 46 45 44 43 43 44 46 49 52 52 50 49 50 54 58 60 58 57 56 56 55 53 52
29 27 25 23 22 20 18 16 14 12 10 8 6 5 5 5 6 8 10 11 13 14 15 16 18 19 20 21 22 23 24 25 27 29 32 33 34 35 35 35 36 36 35 35 35 36 36 37 38 39 39 39 41 42 42 43 45 47 48 49 49 49 49 48 48 47 46 47 46 46 49 52 54 53 50 50 54 59 60 59 58 57 58 56 53
30 28 26 24 23 21 19 17 15 13 10 8 6 5 5 5 7 8 10 11 13 14 15 16 18 19 20 20 22 23 24 25 27 29 31 33 35 35 35 35 36 36 36 36 36 36 36 36 38 39 39 39 39 40 42 44 46 47 49 50 50 50 50 50 50 50 49 50 50 49 47 48 52 56 56 52 51 55 59 61 60 58 57 58 58
31 29 27 26 24 22 20 18 16 13 11 9 7 6 5 5 7 8 10 11 13 14 15 16 18 19 20 21 22 23 24 25 27 29 32 34 35 35 35 35 36 36 37 37 37 37 37 38 39 39 40 41 40 39 40 43 46 49 50 51 51 51 52 52 51 51 50 49 49 50 51 49 49 51 56 57 53 52 55 59 61 60 57 56 60
32 31 29 27 25 23 21 18 16 13 11 9 7 6 5 6 7 8 10 12 13 14 16 17 18 19 20 21 22 23 24 25 27 30 32 34 35 35 35 35 36 37 37 38 38 38 38 39 40 41 42 42 42 41 39 41 45 48 51 54 55 55 54 52 51 51 50 50 47 46 49 50 51 50 52 57 58 55 53 55 59 62 59 55 58
36 34 31 28 26 24 21 19 16 14 12 10 8 7 6 6 7 8 10 12 13 14 15 17 18 19 21 22 23 24 25 26 28 31 33 35 35 36 36 37 37 38 39 39 39 39 39 40 41 42 44 44 44 43 40 40 41 43 47 53 58 57 56 56 53 51 48 46 43 43 44 45 48 50 48 51 56 57 55 53 56 61 60 57 57
37 35 32 29 27 25 22 20 17 15 13 11 9 8 7 7 8 10 11 12 14 15 16 17 18 19 20 22 23 24 25 27 29 32 34 36 37 37 38 38 38 39 40 40 40 40 40 40 41 42 44 45 46 45 42 40 39 41 39 38 44 50 58 57 46 46 48 45 45 45 48 48 47 48 47 47 50 53 52 49 50 56 59 57 58
39 37 34 31 29 25 22 20 18 16 14 12 10 9 8 8 9 11 12 13 14 16 16 17 18 19 20 21 22 24 26 27 29 32 35 36 37 38 38 38 39 39 40 41 41 41 40 41 41 42 43 46 48 47 46 43 39 39 33 31 35 35 41 46 43 52 55 50 52 50 46 48 47 47 47 46 47 48 47 45 43 49 55 56 57
42 40 37 34 30 26 23 21 19 17 15 13 11 10 9 9 10 12 13 14 15 17 17 18 19 20 21 21 23 25 26 28 30 33 34 36 36 37 37 38 38 38 39 41 41 41 41 41 41 42 43 45 48 49 49 47 43 40 34 34 31 22 31 44 49 59 60 51 52 52 47 48 48 48 49 49 49 48 48 46 44 45 49 52 55
46 42 38 34 29 26 24 22 20 18 15 13 11 10 10 10 11 12 14 15 16 18 19 20 21 22 23 23 24 25 28 29 31 33 34 35 36 36 36 37 38 39 39 41 41 41 41 41 41 43 44 44 47 50 51 50 48 46 41 38 34 30 42 49 42 47 59 59 55 52 51 50 48 48 49 52 52 50 50 49 47 47 46 47 53
47 42 38 34 30 27 25 23 21 18 16 14 12 11 11 11 12 13 15 16 17 18 20 21 22 23 24 24 25 25 27 29 31 32 34 35 36 36 37 37 39 39 40 41 42 42 42 41 42 42 45 45 47 50 52 52 51 50 46 43 42 41 43 44 39 37 47 59 58 49 46 47 45 47 49 52 53 52 52 51 49 48 47 45 47
47 43 39 35 31 29 26 24 22 19 17 14 13 12 12 12 13 14 16 17 19 19 20 22 23 24 25 25 26 26 27 29 30 32 33 34 36 36 37 38 39 39 40 42 42 42 42 42 43 43 45 46 47 50 53 53 53 53 49 47 47 44 40 41 43 39 38 49 59 55 51 47 44 47 53 56 56 55 53 52 49 48 49 49 46
48 44 41 36 32 29 27 25 23 20 17 15 13 13 13 13 14 15 16 17 19 20 21 23 24 25 26 26 27 28 29 29 31 32 33 34 36 36 37 38 39 39 40 41 42 42 43 43 44 45 46 47 48 50 52 54 55 54 52 49 46 40 36 36 37 39 40 43 52 57 51 43 40 44 50 54 55 54 52 51 49 47 47 50 51
48 44 40 37 33 31 29 26 23 21 18 16 14 13 13 13 14 15 16 17 19 21 22 23 24 26 27 28 28 30 31 31 32 33 34 35 36 37 38 38 39 40 40 42 42 43 43 44 45 46 47 48 49 50 52 54 55 56 53 49 46 38 33 33 32 34 38 40 46 53 50 41 41 45 47 51 55 55 53 52 51 50 48 48 51
48 45 41 38 35 33 30 27 24 21 19 16 15 14 14 14 14 16 17 18 20 21 22 23 24 26 27 28 29 31 32 33 33 34 35 36 37 37 38 39 39 40 41 42 43 44 45 46 46 47 48 49 50 51 53 54 55 56 55 50 51 48 41 39 38 34 35 39 41 47 48 42 41 45 47 51 54 54 53 52 53 53 51 49 48
Wind_Direction
303 304 317 305 277 60 40 29 53 91 112 319 249 266 307 326 14 338 311 307 278 275 278 276 279 274 278 277 278 285 283 281 280 283 288 289 287 296 299 299 301 300 303 304 305 306 305 302 299 298 296 296 297 297 298 301 300 298 297 291 279 262 249 241 241 246 246 241 243 245 244 241 241 246 253 260 264 264 259 251 240 234 229 225 228
0 3 356 343 318 292 304 306 286 218 190 258 252 252 271 269 349 296 274 306 280 282 281 280 272 263 270 273 275 275 276 276 278 278 277 277 270 275 281 287 296 299 301 304 305 308 312 310 307 304 302 301 303 303 301 299 296 293 291 291 287 277 264 253 245 243 244 241 241 242 244 242 241 245 251 260 266 264 259 250 237 229 226 226 226
345 345 334 328 316 292 284 275 270 255 237 251 257 257 252 245 260 246 243 269 270 282 284 287 277 270 268 267 271 271 274 273 277 278 279 288 281 275 275 276 281 291 297 304 306 307 313 315 315 313 311 310 310 311 310 304 296 291 285 282 284 283 277 266 256 248 244 243 241 241 243 242 242 246 251 258 263 261 259 252 238 227 224 226 225
325 329 325 320 313 297 283 271 266 261 254 256 259 258 249 238 246 250 254 259 256 273 281 281 277 285 277 268 271 270 271 270 274 276 280 285 277 276 278 277 272 280 289 297 302 302 306 309 310 311 313 312 310 310 314 315 306 298 292 282 276 278 277 273 267 256 249 245 243 243 242 241 241 244 249 254 258 256 254 253 242 228 224 227 227
319 320 318 318 314 304 291 275 262 259 260 262 263 261 255 247 246 248 252 257 258 266 273 272 264 277 281 272 277 280 278 273 272 274 280 279 275 274 276 281 276 276 281 288 291 291 297 301 302 305 308 308 307 306 308 313 313 310 302 291 281 275 273 271 270 264 256 249 245 245 244 241 239 241 246 252 255 253 250 252 245 231 226 228 228
310 309 312 315 314 310 302 289 271 262 260 261 265 265 262 260 258 253 252 255 257 262 267 268 265 273 277 271 272 280 284 280 278 274 276 278 278 273 269 272 274 277 279 283 285 281 284 291 297 300 303 303 303 302 301 304 308 311 307 298 288 279 275 270 268 265 260 254 250 248 246 243 240 240 242 248 253 252 249 251 246 233 228 229 229
304 314 320 321 319 315 305 297 287 276 270 266 266 268 267 268 268 265 262 261 261 261 264 267 269 273 278 279 274 274 278 280 282 277 273 273 274 271 266 262 264 272 275 280 280 279 278 277 285 292 296 298 298 296 296 297 299 302 304 302 294 285 280 275 269 264 262 258 254 252 250 244 241 241 240 243 248 251 249 252 247 235 229 228 228
316 331 331 331 325 318 312 302 297 291 286 282 277 275 274 273 273 272 271 269 268 266 265 266 267 268 270 276 278 279 281 280 281 281 279 274 272 270 267 263 263 265 266 273 276 278 279 275 276 280 284 288 291 292 291 291 292 294 297 299 296 290 284 281 274 267 262 259 257 256 254 248 242 239 239 240 243 247 248 253 250 238 230 226 227
327 345 349 345 333 329 332 324 318 308 299 295 289 285 281 278 277 275 275 274 273 271 269 268 267 266 266 269 274 277 279 282 282 281 281 278 275 274 271 267 265 265 262 264 271 277 278 276 276 275 275 276 280 284 288 288 288 289 291 294 293 290 286 285 281 274 266 260 259 258 256 253 246 240 237 237 240 242 244 251 250 240 230 226 227
319 341 351 342 342 350 350 348 341 332 323 312 304 296 291 286 283 280 278 277 275 274 273 272 271 270 269 270 272 272 273 277 280 279 280 279 278 277 275 271 265 265 264 262 264 269 273 276 276 274 273 272 272 275 280 283 284 284 285 287 288 288 286 285 284 280 273 265 261 259 259 256 252 245 237 234 238 239 241 245 247 243 233 228 229
269 298 313 319 326 337 337 339 337 335 333 328 325 319 314 307 301 296 290 286 282 279 277 276 274 273 272 272 271 271 271 272 274 276 277 277 279 279 277 275 270 267 265 264 262 263 265 269 270 268 268 270 269 270 273 275 277 279 281 282 283 284 284 283 281 280 278 273 266 261 260 259 255 250 241 233 235 236 238 242 244 247 239 232 232
236 263 277 297 301 313 317 321 324 326 327 327 327 326 324 322 320 316 312 306 298 292 285 280 276 275 273 271 271 271 271 272 273 273 274 275 276 277 277 277 276 273 269 266 265 264 265 264 263 261 262 265 266 267 267 268 269 271 274 277 278 278 280 281 278 274 273 274 272 267 262 260 257 254 247 236 234 235 236 240 241 246 244 236 234
232 251 260 279 285 298 305 314 318 319 321 322 322 322 322 320 320 317 316 313 309 306 298 292 285 280 277 274 273 272 272 272 273 273 274 274 274 275 275 276 276 277 277 275 273 270 269 265 264 263 260 261 262 263 264 265 265 266 266 268 272 273 274 276 277 274 270 270 272 271 266 262 258 257 251 239 235 235 236 239 240 242 244 240 237
232 245 253 268 275 294 302 312 315 318 319 320 321 321 322 318 318 315 312 309 305 305 302 301 297 293 289 284 281 277 276 273 273 273 273 274 274 275 274 275 275 276 278 279 279 276 274 269 269 269 264 262 261 261 262 263 263 264 264 263 266 269 270 271 273 274 272 269 268 270 268 265 261 258 254 244 238 237 237 238 240 240 242 242 239
231 236 244 257 267 290 296 310 312 319 320 321 324 320 320 317 316 314 311 310 306 304 301 300 298 297 296 293 291 286 283 280 278 276 274 274 274 275 274 274 274 274 273 274 276 277 277 274 271 270 267 266 264 262 260 260 260 263 265 264 262 263 266 268 269 270 271 270 268 268 267 267 264 261 257 248 241 239 238 238 240 239 240 242 241
225 228 235 242 256 277 287 310 316 326 331 329 330 324 322 319 317 317 315 315 313 311 307 304 300 298 296 294 294 293 292 289 286 283 280 278 276 275 274 273 273 273 272 271 271 272 274 274 272 270 268 269 268 266 264 263 262 262 265 266 265 262 262 264 265 265 267 268 267 267 266 265 265 264 260 253 246 241 240 240 240 240 240 241 242
220 223 227 232 242 255 277 313 342 349 350 346 342 338 335 331 329 327 325 325 322 321 318 315 311 307 303 300 297 295 294 293 292 291 289 286 283 280 278 276 275 274 272 271 270 269 270 270 270 270 269 269 269 269 268 267 265 263 263 265 266 265 262 262 262 262 263 264 265 266 266 264 263 264 263 257 250 244 243 242 239 240 240 241 243
218 221 222 229 233 241 258 292 16 21 13 8 0 355 349 345 343 339 338 335 333 331 329 326 323 320 316 311 307 303 299 297 295 293 292 291 289 287 285 282 280 278 276 273 271 270 268 268 268 268 269 269 269 269 269 268 267 266 265 265 265 267 265 262 261 261 261 261 262 264 265 263 262 263 264 261 255 248 244 244 243 241 240 241 242
215 219 218 226 226 232 241 250 348 16 15 15 13 7 2 356 353 349 347 346 345 344 343 341 337 332 328 322 317 312 308 303 300 297 294 293 291 290 288 287 285 282 281 279 277 274 272 269 268 268 268 268 268 268 268 267 267 267 267 267 266 267 267 265 263 262 261 260 260 261 262 261 262 264 264 261 258 253 248 245 245 244 242 241 241
213 216 215 222 220 226 232 241 290 342 357 6 10 9 7 4 2 357 354 353 352 352 353 351 348 345 339 334 328 322 317 311 307 303 299 297 294 292 291 289 288 286 284 282 281 279 278 275 272 270 269 268 268 268 267 267 267 266 265 265 267 267 268 267 266 264 260 259 259 259 260 260 260 262 264 263 259 256 253 249 246 245 244 244 242
212 215 216 219 219 224 228 238 260 298 337 358 5 8 11 10 9 5 1 358 356 356 355 354 352 350 346 343 338 333 328 323 318 313 309 305 301 298 296 294 292 290 288 286 284 282 281 280 278 276 273 271 269 267 266 266 266 266 265 263 263 265 266 266 265 265 262 258 258 258 259 258 258 259 261 262 260 257 255 253 250 247 245 245 244
213 216 219 221 220 224 228 236 249 275 323 359 8 13 16 17 15 12 8 3 360 358 356 355 353 351 349 346 343 340 336 333 329 325 321 318 314 309 305 301 298 295 293 292 289 287 284 282 281 279 278 276 274 272 270 267 266 266 266 265 264 263 264 264 263 264 263 259 257 257 257 257 257 257 258 259 259 257 254 254 254 250 247 245 244
215 219 223 224 223 225 230 234 242 262 312 2 13 19 20 20 19 15 11 6 2 359 357 356 354 352 349 347 344 342 339 336 333 330 327 324 321 318 315 311 307 304 300 297 294 292 290 287 285 282 280 279 278 276 275 273 270 267 266 266 265 264 263 263 263 262 262 261 257 256 256 255 256 256 256 257 257 257 255 254 254 253 250 246 243
219 223 226 226 225 227 230 232 238 252 291 353 13 22 24 22 20 16 11 7 3 0 358 356 354 352 350 347 345 342 339 336 333 331 328 325 323 320 318 316 313 311 308 306 302 299 296 293 290 287 285 283 280 278 277 275 274 272 270 267 266 266 264 263 263 262 260 259 258 257 256 254 254 255 255 255 255 256 256 255 254 253 253 251 245
222 226 227 224 224 227 230 234 239 248 278 337 9 17 20 22 21 17 12 8 4 0 358 356 354 352 350 347 344 341 338 334 332 329 327 326 325 323 321 320 318 316 314 312 310 308 305 302 299 296 292 289 286 283 280 278 275 273 272 270 267 267 266 265 264 263 261 259 257 256 256 255 254 253 254 254 254 254 254 255 255 254 254 254 251
223 227 225 224 226 229 233 235 240 247 272 314 351 5 12 16 18 16 14 9 3 0 357 354 353 352 350 347 344 340 337 334 332 330 330 328 327 327 326 324 323 321 320 317 316 314 313 311 309 306 302 299 295 291 288 285 281 277 274 271 269 267 266 266 265 265 264 261 258 256 256 257 256 254 253 252 253 254 253 254 254 255 255 254 254
225 227 225 225 227 229 232 233 236 242 259 287 329 355 3 6 10 13 12 8 3 360 356 354 352 352 350 348 345 341 339 336 334 333 332 331 330 330 329 328 326 325 323 321 321 319 318 316 314 313 310 307 304 300 296 292 288 285 281 276 272 269 267 266 265 265 265 264 262 259 257 256 256 256 255 252 251 253 253 253 252 253 255 256 256
226 226 224 224 225 227 228 229 232 236 249 270 311 347 359 1 5 9 9 6 3 359 355 354 352 352 350 348 346 343 341 338 335 334 332 332 331 331 331 331 330 329 328 325 324 322 321 319 318 316 314 312 310 307 303 299 294 290 287 283 278 274 270 267 266 265 265 265 265 262 260 257 256 257 258 255 251 250 251 252 252 252 254 256 256
225 224 223 222 224 226 226 228 231 236 247 270 313 344 357 359 3 4 4 4 0 358 355 354 352 351 349 347 345 343 341 338 336 334 332 331 330 330 330 331 331 331 330 329 327 326 324 322 320 318 317 315 313 312 309 306 302 297 292 288 284 279 274 270 267 266 264 264 265 264 263 261 259 258 258 258 254 251 250 251 252 251 251 253 256
223 222 222 223 225 227 229 231 234 243 256 283 320 340 352 353 357 357 359 1 359 357 354 353 351 348 347 344 343 342 340 338 335 334 332 330 329 328 329 329 329 329 329 329 329 328 327 326 323 321 319 317 315 315 313 310 307 304 300 294 289 285 280 276 271 268 265 264 263 264 263 262 261 259 258 257 257 254 251 249 250 251 251 251 253
221 222 222 225 227 229 232 235 240 248 261 287 311 326 342 345 348 351 354 357 356 355 352 349 347 344 342 341 341 340 338 337 335 333 331 330 329 328 327 328 328 327 327 328 327 327 327 327 325 323 322 319 317 316 313 311 309 307 305 302 297 291 286 281 277 273 269 266 264 263 262 262 261 260 259 257 257 256 254 251 250 251 251 250 251
221 223 225 228 229 232 234 237 243 249 259 277 296 311 329 337 341 347 352 353 353 351 348 344 341 339 338 338 338 338 337 336 334 332 331 330 329 328 327 327 327 327 326 326 326 325 325 325 324 323 322 320 318 316 314 311 309 308 306 305 303 299 294 288 282 278 274 271 267 265 263 262 261 260 259 257 256 256 256 254 252 251 250 249 249
223 225 227 229 230 234 237 239 241 245 252 264 282 299 316 329 337 344 348 350 348 345 342 339 336 334 334 335 336 336 337 336 335 333 331 330 328 327 327 326 326 326 325 325 324 324 323 323 323 323 322 321 319 317 316 313 311 308 306 304 303 301 299 296 290 284 278 274 271 268 265 263 262 261 260 258 256 255 256 257 255 253 250 250 250
225 227 229 230 232 235 237 239 239 241 247 258 270 286 305 322 334 341 345 344 342 340 338 335 332 331 332 334 335 335 336 336 335 332 330 329 327 327 326 326 325 325 325 324 323 323 323 323 323 322 321 321 321 320 318 316 313 311 307 305 301 299 298 296 295 291 286 280 275 271 268 265 262 261 261 259 257 255 255 257 258 255 252 250 250
226 227 229 230 232 235 236 237 237 239 244 252 261 275 295 316 330 336 338 337 337 337 334 332 329 330 332 334 334 333 335 335 333 330 328 327 326 326 325 325 325 324 324 324 324 323 323 322 322 321 320 320 320 320 319 317 315 313 311 308 304 301 297 294 292 292 290 287 281 275 271 268 264 262 261 260 259 256 254 255 257 258 256 252 251
227 227 228 229 231 234 235 237 236 237 239 244 253 270 291 311 325 330 334 334 336 334 331 330 330 332 334 333 332 332 335 335 332 328 326 325 324 324 324 324 323 323 323 323 323 322 322 321 322 321 320 319 318 318 317 317 316 314 313 310 307 305 301 298 293 290 289 287 285 281 277 271 267 264 261 260 260 258 256 254 255 258 259 255 252
227 227 228 229 232 234 235 236 233 234 236 241 250 265 289 309 320 327 331 333 333 331 330 330 331 333 333 332 331 332 333 332 329 326 323 323 323 323 323 323 323 323 322 322 322 321 321 320 320 320 320 319 318 316 316 315 314 313 312 310 308 307 304 301 298 294 290 285 283 282 281 278 273 267 263 260 259 259 258 256 254 256 259 259 255
225 225 228 230 232 234 235 234 232 233 235 240 249 261 284 304 316 326 330 332 330 328 331 332 333 333 331 330 328 329 329 327 326 324 322 321 321 322 323 323 323 323 322 321 321 320 319 318 318 318 318 317 317 316 316 314 312 309 308 307 307 306 304 302 300 297 295 291 286 282 280 279 277 273 267 263 260 259 259 258 256 255 257 258 259
223 224 227 228 230 232 232 232 232 232 235 237 243 256 277 299 314 325 327 328 327 327 332 333 333 331 328 327 325 326 325 324 324 323 322 320 320 321 321 322 322 322 321 320 319 318 318 317 316 315 315 315 315 315 315 313 311 309 307 306 305 304 303 302 300 297 296 294 292 288 283 278 276 275 273 268 262 260 259 259 258 256 255 256 258
222 224 226 227 228 230 231 232 232 232 232 234 238 252 273 295 311 321 321 324 327 327 330 332 332 328 325 324 322 323 322 323 324 323 321 320 319 319 319 320 319 319 319 318 318 318 318 317 316 315 314 313 313 314 314 312 311 309 308 306 304 303 301 300 300 298 296 294 292 290 287 282 277 273 272 271 267 263 259 259 259 256 255 255 257
220 222 224 226 228 230 231 231 231 231 229 233 238 249 268 291 304 314 318 320 325 328 329 329 329 325 322 321 319 320 321 323 324 322 321 319 318 318 318 318 318 318 317 317 317 317 317 317 316 315 314 313 312 314 314 313 311 310 310 308 305 303 302 301 300 298 298 296 294 290 287 285 281 276 271 271 270 267 263 259 260 258 255 253 255
221 222 224 225 228 229 230 229 228 229 229 232 239 250 267 285 298 309 318 321 324 329 329 327 326 323 320 318 318 320 322 324 324 322 320 319 318 318 319 319 318 318 317 316 316 316 316 315 315 314 313 313 312 313 315 314 314 314 314 310 308 308 305 303 301 301 301 301 298 293 288 285 283 281 276 272 269 268 268 263 259 259 256 253 252
223 224 225 225 227 228 227 227 227 228 229 234 240 251 268 283 297 307 317 321 323 327 327 323 321 320 318 317 318 321 323 324 323 322 320 319 319 319 319 319 318 317 316 315 315 315 315 314 314 314 313 312 311 312 313 313 313 314 314 308 308 311 308 305 304 303 302 299 295 291 288 286 283 282 278 274 269 266 268 268 263 260 257 253 252
223 223 224 224 226 227 227 228 228 228 230 236 242 254 269 285 298 307 315 321 323 322 322 320 318 317 316 316 318 320 322 322 322 320 318 317 317 316 317 316 315 315 314 314 313 314 314 314 314 313 312 311 310 311 310 310 311 311 310 302 303 307 300 300 303 300 299 296 292 289 287 286 283 280 277 271 268 263 262 264 264 262 259 254 252
223 223 224 225 226 227 228 228 227 229 232 236 244 257 272 287 299 307 313 318 320 318 317 318 317 317 318 319 321 321 321 323 321 318 315 314 314 314 314 313 313 313 312 312 312 312 313 312 312 311 311 310 309 308 307 307 308 305 302 297 298 294 285 294 301 299 297 294 291 290 285 282 281 280 277 271 266 262 259 258 257 260 261 256 253
226 225 224 225 227 227 227 228 228 229 233 238 247 260 274 287 298 305 310 314 317 318 317 318 319 319 320 322 322 322 322 323 320 316 315 314 314 314 314 313 313 313 312 311 311 311 311 310 311 310 309 309 307 306 305 306 305 303 300 295 290 283 284 291 295 295 295 293 290 289 287 284 282 279 276 275 270 264 260 258 255 255 257 257 254
226 224 223 225 225 225 226 228 229 230 234 241 250 262 275 287 296 303 308 311 314 317 317 317 318 318 320 321 320 322 322 320 317 315 315 315 315 315 315 314 313 313 312 311 311 311 310 309 309 308 307 306 305 303 303 303 302 301 299 296 291 286 284 283 281 283 291 293 290 288 285 284 282 278 276 275 273 269 264 260 257 254 253 253 256
226 223 222 224 223 224 227 228 228 230 235 243 252 263 276 286 294 301 307 309 311 316 316 315 317 318 319 319 319 321 320 317 315 314 314 314 313 314 314 313 312 311 310 309 310 310 309 309 307 306 304 303 301 300 300 300 300 298 297 295 293 289 283 277 274 272 274 283 286 284 282 281 279 277 276 273 273 273 269 264 259 256 252 249 252
225 223 223 223 223 224 226 227 228 231 235 244 254 265 275 284 292 299 304 308 310 313 316 316 317 317 318 319 320 322 320 317 315 314 313 313 312 312 312 311 310 310 309 308 308 308 307 306 304 303 301 299 298 297 297 297 296 296 294 292 291 288 282 274 267 262 261 268 277 279 280 282 279 276 275 273 273 273 270 267 262 259 256 250 247
225 223 223 222 223 224 225 227 229 231 236 244 254 265 274 282 290 296 301 305 308 311 314 316 316 316 318 320 321 322 319 317 315 314 314 313 312 312 311 311 310 310 309 308 308 306 305 303 301 300 298 297 296 295 294 294 293 293 291 288 285 279 271 267 260 256 258 261 266 273 277 278 276 274 274 273 271 271 271 270 266 261 258 254 248
223 221 221 221 221 223 225 227 228 230 236 244 252 262 271 280 288 294 300 305 307 310 312 314 315 316 318 319 320 319 317 316 315 314 314 313 312 312 312 311 311 310 309 308 306 305 303 301 299 298 296 295 294 294 292 292 291 290 289 284 281 277 268 262 260 256 257 259 262 268 272 274 274 273 274 274 272 272 273 270 267 262 258 256 252